Location: Unspecified
(0.0000°N, 0.0000°E)
Time: 10:42:30
(UTC+00:00)

A-11 Canister half - Pass Details

Date: 04 August 2021
Orbit: 1526 x 1683 km, 47.3° (Epoch: 27 September)

Event Time Altitude Azimuth Distance (km) Brightness Sun altitude
Rises 19:35:59 0° 314° (NW) 4,762 12.7 -21.4°
Reaches altitude 10° 19:39:07 10° 311° (NW) 3,758 12.0 -22.2°
Maximum altitude 19:48:30 67° 231° (SW) 1,652 9.2 -24.4°
Enters shadow 19:54:02 27° 157° (SSE) 2,585 9.8 -25.7°
